• In Russia
  • List of Countries
  • For 7 days
  • Water Temperature
  • Satellite Maps
  • Weather Map
  • Weather Widgets
  • user-avatar
    Login

    Hourly Weather Wlora

    Today, 20 November, Monday

    Time Temperature Precipitation Wind Pressure Humidity
    00:00 +11°C° 0.3 mm 6 mps 758 mmHg 86%
    01:00 +10°C° 0.3 mm 7 mps 758 mmHg 87%
    02:00 +10°C° 0.5 mm 8 mps 758 mmHg 86%
    03:00 +10°C° 0.5 mm 8 mps 759 mmHg 85%
    04:00 +10°C° 0.5 mm 9 mps 759 mmHg 83%
    05:00 +10°C° 0.5 mm 9 mps 759 mmHg 83%
    06:00 +9°C° 0.5 mm 10 mps 759 mmHg 83%
    07:00 +8°C° 0.5 mm 10 mps 759 mmHg 83%
    08:00 +9°C° 0.1 mm 10 mps 760 mmHg 78%
    09:00 +11°C° 0.1 mm 10 mps 761 mmHg 72%
    10:00 +12°C° 0.1 mm 11 mps 761 mmHg 66%
    11:00 +12°C° 0 mm 10 mps 762 mmHg 63%
    12:00 +12°C° 0 mm 10 mps 762 mmHg 60%
    13:00 +12°C° 0 mm 10 mps 762 mmHg 57%
    14:00 +11°C° 0 mm 9 mps 762 mmHg 59%
    15:00 +11°C° 0 mm 9 mps 763 mmHg 61%
    16:00 +10°C° 0 mm 9 mps 763 mmHg 63%
    17:00 +9°C° 0 mm 8 mps 764 mmHg 65%
    18:00 +8°C° 0 mm 7 mps 764 mmHg 67%
    19:00 +6°C° 0 mm 7 mps 764 mmHg 69%
    20:00 +7°C° 0 mm 6 mps 765 mmHg 68%
    21:00 +7°C° 0 mm 6 mps 765 mmHg 67%
    22:00 +7°C° 0 mm 5 mps 766 mmHg 67%
    23:00 +6°C° 0 mm 5 mps 766 mmHg 65%

    Tomorrow, 21 November, Tuesday

    Time Temperature Precipitation Wind Pressure Humidity
    00:00 +6°C° 0 mm 5 mps 766 mmHg 64%
    01:00 +6°C° 0 mm 5 mps 766 mmHg 63%
    02:00 +6°C° 0 mm 4 mps 766 mmHg 61%
    03:00 +6°C° 0 mm 4 mps 766 mmHg 59%
    04:00 +6°C° 0 mm 4 mps 766 mmHg 57%
    05:00 +7°C° 0 mm 3 mps 766 mmHg 55%
    06:00 +7°C° 0 mm 3 mps 766 mmHg 53%
    07:00 +7°C° 0 mm 3 mps 766 mmHg 51%
    08:00 +9°C° 0 mm 2 mps 766 mmHg 45%
    09:00 +10°C° 0 mm 2 mps 766 mmHg 40%
    10:00 +13°C° 0 mm 2 mps 767 mmHg 34%
    11:00 +14°C° 0 mm 2 mps 766 mmHg 34%
    12:00 +14°C° 0 mm 2 mps 766 mmHg 33%
    13:00 +15°C° 0 mm 2 mps 766 mmHg 33%
    14:00 +14°C° 0 mm 1 mps 766 mmHg 37%
    15:00 +13°C° 0 mm 1 mps 766 mmHg 42%
    16:00 +12°C° 0 mm 1 mps 765 mmHg 46%
    17:00 +12°C° 0 mm 1 mps 766 mmHg 47%
    18:00 +11°C° 0 mm 1 mps 766 mmHg 47%
    19:00 +9°C° 0 mm 2 mps 766 mmHg 47%
    20:00 +9°C° 0 mm 2 mps 766 mmHg 47%
    21:00 +9°C° 0 mm 2 mps 766 mmHg 47%
    22:00 +9°C° 0 mm 2 mps 766 mmHg 46%
    23:00 +9°C° 0 mm 2 mps 766 mmHg 46%

    Day after tomorrow, 22 November, Wednesday

    Time Temperature Precipitation Wind Pressure Humidity
    00:00 +9°C° 0 mm 2 mps 766 mmHg 46%
    01:00 +8°C° 0 mm 2 mps 766 mmHg 46%
    02:00 +8°C° 0 mm 2 mps 766 mmHg 46%
    03:00 +8°C° 0 mm 2 mps 766 mmHg 46%
    04:00 +8°C° 0 mm 2 mps 766 mmHg 46%
    05:00 +8°C° 0 mm 2 mps 766 mmHg 48%
    06:00 +8°C° 0 mm 2 mps 766 mmHg 50%
    07:00 +8°C° 0 mm 2 mps 766 mmHg 51%
    08:00 +10°C° 0 mm 2 mps 766 mmHg 50%
    09:00 +13°C° 0 mm 1 mps 767 mmHg 48%
    10:00 +15°C° 0 mm 1 mps 767 mmHg 46%
    11:00 +16°C° 0 mm 2 mps 766 mmHg 47%
    12:00 +16°C° 0 mm 2 mps 766 mmHg 48%
    13:00 +17°C° 0 mm 2 mps 766 mmHg 48%
    14:00 +16°C° 0 mm 2 mps 766 mmHg 53%
    15:00 +15°C° 0 mm 2 mps 766 mmHg 59%
    16:00 +13°C° 0 mm 3 mps 766 mmHg 64%
    17:00 +12°C° 0 mm 3 mps 766 mmHg 66%
    18:00 +12°C° 0 mm 3 mps 766 mmHg 68%
    19:00 +11°C° 0 mm 3 mps 767 mmHg 70%
    20:00 +11°C° 0 mm 3 mps 767 mmHg 69%
    21:00 +11°C° 0 mm 3 mps 767 mmHg 68%
    22:00 +12°C° 0 mm 2 mps 767 mmHg 67%
    23:00 +12°C° 0 mm 2 mps 767 mmHg 66%

    23 November, Thursday

    Time Temperature Precipitation Wind Pressure Humidity
    00:00 +10°C° 0 mm 2 mps 767 mmHg 65%
    01:00 +10°C° 0 mm 2 mps 767 mmHg 64%
    02:00 +10°C° 0 mm 2 mps 767 mmHg 63%
    03:00 +10°C° 0 mm 2 mps 767 mmHg 62%
    04:00 +10°C° 0 mm 2 mps 767 mmHg 60%
    05:00 +10°C° 0 mm 2 mps 767 mmHg 60%
    06:00 +10°C° 0 mm 2 mps 767 mmHg 59%
    07:00 +10°C° 0 mm 2 mps 767 mmHg 59%
    08:00 +13°C° 0 mm 2 mps 768 mmHg 54%
    09:00 +15°C° 0 mm 2 mps 768 mmHg 50%
    10:00 +17°C° 0 mm 2 mps 768 mmHg 46%
    11:00 +17°C° 0 mm 3 mps 768 mmHg 47%
    12:00 +18°C° 0 mm 3 mps 767 mmHg 48%
    13:00 +19°C° 0 mm 3 mps 767 mmHg 48%
    14:00 +18°C° 0 mm 3 mps 767 mmHg 54%
    15:00 +16°C° 0 mm 3 mps 767 mmHg 60%
    16:00 +14°C° 0 mm 4 mps 767 mmHg 66%
    17:00 +14°C° 0 mm 4 mps 768 mmHg 68%
    18:00 +13°C° 0 mm 4 mps 768 mmHg 69%
    19:00 +12°C° 0 mm 4 mps 768 mmHg 70%
    20:00 +12°C° 0 mm 4 mps 768 mmHg 69%
    21:00 +12°C° 0 mm 3 mps 768 mmHg 68%
    22:00 +12°C° 0 mm 3 mps 769 mmHg 66%
    23:00 +12°C° 0 mm 3 mps 768 mmHg 65%

    24 November, Friday

    Time Temperature Precipitation Wind Pressure Humidity
    00:00 +12°C° 0 mm 3 mps 768 mmHg 64%
    01:00 +11°C° 0 mm 4 mps 768 mmHg 63%
    02:00 +11°C° 0 mm 4 mps 768 mmHg 62%
    03:00 +11°C° 0 mm 4 mps 768 mmHg 61%
    04:00 +11°C° 0 mm 4 mps 768 mmHg 60%
    05:00 +11°C° 0 mm 3 mps 768 mmHg 60%
    06:00 +11°C° 0 mm 3 mps 768 mmHg 59%
    07:00 +11°C° 0 mm 3 mps 768 mmHg 58%
    08:00 +13°C° 0 mm 3 mps 768 mmHg 54%
    09:00 +16°C° 0 mm 3 mps 768 mmHg 50%
    10:00 +17°C° 0 mm 3 mps 768 mmHg 46%
    11:00 +18°C° 0 mm 4 mps 768 mmHg 46%
    12:00 +19°C° 0 mm 4 mps 768 mmHg 46%
    13:00 +19°C° 0 mm 4 mps 768 mmHg 46%
    14:00 +18°C° 0 mm 4 mps 768 mmHg 53%
    15:00 +17°C° 0 mm 4 mps 768 mmHg 60%
    16:00 +15°C° 0 mm 5 mps 768 mmHg 66%
    17:00 +14°C° 0 mm 4 mps 768 mmHg 68%
    18:00 +13°C° 0 mm 4 mps 768 mmHg 70%
    19:00 +12°C° 0 mm 4 mps 768 mmHg 72%
    20:00 +12°C° 0 mm 4 mps 768 mmHg 70%
    21:00 +12°C° 0 mm 4 mps 768 mmHg 68%
    22:00 +12°C° 0 mm 4 mps 769 mmHg 67%
    23:00 +12°C° 0 mm 4 mps 769 mmHg 65%

    25 November, Saturday

    Time Temperature Precipitation Wind Pressure Humidity
    00:00 +12°C° 0 mm 4 mps 768 mmHg 64%
    01:00 +11°C° 0 mm 4 mps 768 mmHg 63%
    02:00 +11°C° 0 mm 4 mps 768 mmHg 62%
    03:00 +11°C° 0 mm 3 mps 768 mmHg 61%
    04:00 +11°C° 0 mm 3 mps 768 mmHg 60%
    05:00 +11°C° 0 mm 3 mps 768 mmHg 60%
    06:00 +11°C° 0 mm 3 mps 769 mmHg 59%
    07:00 +11°C° 0 mm 3 mps 769 mmHg 59%
    08:00 +13°C° 0 mm 3 mps 769 mmHg 54%
    09:00 +16°C° 0 mm 3 mps 769 mmHg 50%
    10:00 +18°C° 0 mm 2 mps 769 mmHg 45%
    11:00 +18°C° 0 mm 2 mps 769 mmHg 45%
    12:00 +19°C° 0 mm 2 mps 769 mmHg 45%
    13:00 +19°C° 0 mm 3 mps 768 mmHg 45%
    14:00 +18°C° 0 mm 3 mps 768 mmHg 52%
    15:00 +17°C° 0 mm 3 mps 768 mmHg 58%
    16:00 +16°C° 0 mm 3 mps 768 mmHg 64%
    17:00 +14°C° 0 mm 3 mps 769 mmHg 67%
    18:00 +13°C° 0 mm 3 mps 769 mmHg 69%
    19:00 +12°C° 0 mm 3 mps 769 mmHg 71%
    20:00 +13°C° 0 mm 2 mps 769 mmHg 70%
    21:00 +13°C° 0 mm 2 mps 769 mmHg 68%
    22:00 +13°C° 0 mm 2 mps 770 mmHg 67%
    23:00 +13°C° 0 mm 2 mps 770 mmHg 67%
    Show more